Horseshoe Bay, TX

5:12 AM MDT on July 26, 2017 (GMT -0600)
Horseshoe Bay

Weather History for KDZB - March, 2014

Change the Weather History Date:

Saturday, March 29, 2014

  Actual Average (KBMQ) Record (KBMQ)
Temperature  
Mean Temperature 63 °F -  
Max Temperature 78 °F 70 °F 82 °F (1997)
Min Temperature 48 °F 50 °F 34 °F (2009)
Degree Days  
Heating Degree Days 2    
Growing Degree Days 13 (Base 50)    
Moisture  
Dew Point 35 °F    
Average Humidity 40    
Maximum Humidity 69    
Minimum Humidity 14    
Precipitation  
Precipitation 0.00 in - - ()
Sea Level Pressure  
Sea Level Pressure 30.20 in    
Wind  
Wind Speed 6 mph (NNE)    
Max Wind Speed 10 mph    
Max Gust Speed 17 mph    
Visibility 10 miles    
Events      
Averages and records for this station are not official NWS values.
T = Trace of Precipitation, MM = Missing Value Source: NWS Daily Summary

Daily Weather History Graph

Daily Weather History Graph

Search for Another Location

Airport or City:

Trip Planner

Search our weather history database for the weather conditions in past years. The results will help you decide how hot, cold, wet, or windy it might be!

Date:

Astronomy

Mar. 29, 2014 Rise Set
Actual Time 6:26 AM MDT 6:50 PM MDT
Civil Twilight 6:02 AM MDT 7:14 PM MDT
Nautical Twilight 5:33 AM MDT 7:43 PM MDT
Astronomical Twilight 5:05 AM MDT 8:11 PM MDT
Moon 5:31 AM MDT (3/29) 5:59 PM MDT (3/29)
Length of Visible Light 13h 12m
Length of Day
12h 24m
Waning Crescent, 1% of the Moon is Illuminated
Mar 29
Waning Crescent
Mar 30
New
Apr 7
First Quarter
Apr 15
Full
Apr 22
Last Quarter

Hourly Weather History & Observations

Time (MDT) Temp. Dew Point Humidity Pressure Visibility Wind Dir Wind Speed Gust Speed Precip Events Conditions
12:15 AM 61.7 °F 45.3 °F 55% 30.08 in 10.0 mi North 10.4 mph - N/A   Clear
12:35 AM 60.8 °F 45.7 °F 57% 30.09 in 10.0 mi North 6.9 mph - N/A   Clear
12:55 AM 59.9 °F 45.7 °F 59% 30.10 in 10.0 mi North 6.9 mph - N/A   Clear
1:15 AM 58.6 °F 45.5 °F 62% 30.10 in 10.0 mi North 5.8 mph - N/A   Clear
1:35 AM 57.7 °F 44.1 °F 60% 30.10 in 10.0 mi North 9.2 mph 17.3 mph N/A   Clear
1:55 AM 57.2 °F 43.2 °F 59% 30.11 in 10.0 mi North 6.9 mph - N/A   Clear
2:15 AM 56.5 °F 41.9 °F 58% 30.11 in 10.0 mi North 3.5 mph - N/A   Clear
2:35 AM 55.8 °F 41.9 °F 60% 30.12 in 10.0 mi NW 5.8 mph - N/A   Clear
2:55 AM 55.2 °F 41.0 °F 59% 30.12 in 10.0 mi NNW 5.8 mph - N/A   Clear
3:15 AM 54.7 °F 40.1 °F 58% 30.12 in 10.0 mi North 5.8 mph - N/A   Clear
3:35 AM 54.1 °F 40.1 °F 59% 30.12 in 10.0 mi NNW 5.8 mph - N/A   Clear
3:55 AM 53.6 °F 40.3 °F 61% 30.13 in 10.0 mi NNW 4.6 mph - N/A   Clear
4:15 AM 53.1 °F 40.1 °F 61% 30.12 in 10.0 mi NNW 5.8 mph - N/A   Clear
4:35 AM 52.7 °F 39.6 °F 61% 30.14 in 10.0 mi NW 3.5 mph - N/A   Clear
4:55 AM 51.1 °F 39.4 °F 64% 30.14 in 10.0 mi NW 3.5 mph - N/A   Clear
5:15 AM 50.9 °F 39.2 °F 64% 30.15 in 10.0 mi NW 4.6 mph - N/A   Clear
5:35 AM 50.7 °F 39.0 °F 64% 30.17 in 10.0 mi Calm Calm - N/A   Clear
5:55 AM 49.8 °F 38.7 °F 65% 30.18 in 10.0 mi NW 4.6 mph - N/A   Clear
6:15 AM 50.0 °F 38.8 °F 66% 30.19 in 10.0 mi NW 5.8 mph - N/A   Clear
6:35 AM 49.6 °F 39.2 °F 67% 30.21 in 10.0 mi WNW 3.5 mph - N/A   Clear
6:55 AM 48.9 °F 39.2 °F 69% 30.22 in 10.0 mi Calm Calm - N/A   Clear
7:15 AM 50.4 °F 39.6 °F 66% 30.24 in 10.0 mi West 3.5 mph - N/A   Clear
7:35 AM 52.3 °F 39.7 °F 62% 30.24 in 10.0 mi NW 4.6 mph - N/A   Clear
7:55 AM 54.0 °F 39.6 °F 58% 30.25 in 10.0 mi NW 6.9 mph - N/A   Clear
8:15 AM 54.7 °F 39.7 °F 57% 30.26 in 10.0 mi WNW 4.6 mph - N/A   Clear
8:35 AM 56.1 °F 40.5 °F 56% 30.27 in 10.0 mi NNW 5.8 mph - N/A   Clear
8:55 AM 57.6 °F 41.0 °F 54% 30.27 in 10.0 mi NNW 5.8 mph - N/A   Clear
9:15 AM 59.0 °F 41.0 °F 51% 30.28 in 10.0 mi NNW 4.6 mph - N/A   Clear
9:35 AM 60.3 °F 41.5 °F 50% 30.29 in 10.0 mi WNW 5.8 mph - N/A   Clear
9:55 AM 62.1 °F 41.9 °F 48% 30.29 in 10.0 mi NW 4.6 mph - N/A   Clear
10:15 AM 63.0 °F 42.1 °F 46% 30.29 in 10.0 mi Calm Calm - N/A   Clear
10:35 AM 65.7 °F 42.3 °F 43% 30.30 in 10.0 mi NW 4.6 mph - N/A   Clear
10:55 AM 67.1 °F 40.6 °F 38% 30.30 in 10.0 mi NNW 4.6 mph - N/A   Clear
11:15 AM 70.0 °F 39.6 °F 33% 30.29 in 10.0 mi NNE 6.9 mph - N/A   Clear
11:35 AM 71.2 °F 37.2 °F 29% 30.28 in 10.0 mi NE 5.8 mph - N/A   Clear
11:55 AM 72.1 °F 36.1 °F 27% 30.28 in 10.0 mi NE 5.8 mph - N/A   Clear
12:15 PM 73.2 °F 34.9 °F 25% 30.27 in 10.0 mi North 3.5 mph - N/A   Clear
12:35 PM 73.8 °F 36.0 °F 25% 30.26 in 10.0 mi NNE 5.8 mph - N/A   Clear
12:55 PM 74.8 °F 32.5 °F 21% 30.26 in 10.0 mi North 5.8 mph - N/A   Clear
1:15 PM 75.7 °F 29.1 °F 18% 30.25 in 10.0 mi NE 6.9 mph - N/A   Clear
1:35 PM 76.1 °F 28.2 °F 17% 30.24 in 10.0 mi NE 5.8 mph - N/A   Clear
1:55 PM 75.7 °F 27.5 °F 17% 30.23 in 10.0 mi ENE 8.1 mph - N/A   Clear
2:15 PM 76.6 °F 27.3 °F 16% 30.22 in 10.0 mi NE 8.1 mph - N/A   Clear
2:35 PM 78.1 °F 28.0 °F 16% 30.20 in 10.0 mi NE 9.2 mph - N/A   Clear
2:55 PM 77.7 °F 25.9 °F 15% 30.20 in 10.0 mi NE 10.4 mph - N/A   Clear
3:15 PM 77.4 °F 26.1 °F 15% 30.19 in 10.0 mi ENE 5.8 mph - N/A   Clear
3:35 PM 77.5 °F 25.0 °F 14% 30.18 in 10.0 mi NE 5.8 mph - N/A   Clear
3:55 PM 78.1 °F 25.2 °F 14% 30.17 in 10.0 mi East 6.9 mph - N/A   Clear
4:15 PM 77.4 °F 23.5 °F 14% 30.17 in 10.0 mi SE 4.6 mph - N/A   Clear
4:35 PM 77.4 °F 24.4 °F 14% 30.17 in 10.0 mi East 8.1 mph - N/A   Clear
4:55 PM 76.6 °F 23.4 °F 14% 30.17 in 10.0 mi East 6.9 mph - N/A   Clear
5:15 PM 76.3 °F 23.7 °F 14% 30.17 in 10.0 mi ENE 6.9 mph - N/A   Clear
5:35 PM 75.4 °F 23.0 °F 14% 30.17 in 10.0 mi NE 6.9 mph - N/A   Clear
5:55 PM 74.5 °F 23.5 °F 15% 30.17 in 10.0 mi NE 5.8 mph - N/A   Clear
6:15 PM 73.4 °F 24.6 °F 16% 30.17 in 10.0 mi East 4.6 mph - N/A   Clear
6:35 PM 71.4 °F 26.8 °F 19% 30.18 in 10.0 mi ESE 5.8 mph - N/A   Clear
6:55 PM 68.9 °F 27.3 °F 21% 30.18 in 10.0 mi Calm Calm - N/A   Clear
7:15 PM 66.6 °F 27.5 °F 23% 30.19 in 10.0 mi Calm Calm - N/A   Clear
7:35 PM 64.6 °F 28.4 °F 26% 30.20 in 10.0 mi SE 3.5 mph - N/A   Clear
7:55 PM 63.9 °F 30.2 °F 28% 30.20 in 10.0 mi SE 3.5 mph - N/A   Clear
8:15 PM 62.8 °F 31.1 °F 30% 30.20 in 10.0 mi SE 3.5 mph - N/A   Clear
8:35 PM 62.1 °F 31.1 °F 31% 30.21 in 10.0 mi SE 4.6 mph - N/A   Clear
8:55 PM 61.9 °F 31.3 °F 32% 30.21 in 10.0 mi SE 3.5 mph - N/A   Clear
9:15 PM 61.0 °F 31.8 °F 33% 30.21 in 10.0 mi ESE 4.6 mph - N/A   Clear
9:35 PM 61.3 °F 32.0 °F 33% 30.21 in 10.0 mi SE 3.5 mph - N/A   Clear
9:55 PM 59.9 °F 32.0 °F 35% 30.21 in 10.0 mi SE 4.6 mph - N/A   Clear
10:15 PM 59.0 °F 32.4 °F 37% 30.20 in 10.0 mi SE 5.8 mph - N/A   Clear
10:35 PM 57.7 °F 33.1 °F 39% 30.20 in 10.0 mi SSE 4.6 mph - N/A   Clear
10:55 PM 56.7 °F 34.2 °F 43% 30.20 in 10.0 mi SSE 4.6 mph - N/A   Clear
11:15 PM 56.8 °F 34.7 °F 43% 30.20 in 10.0 mi SSE 4.6 mph - N/A   Clear
11:35 PM 56.3 °F 34.9 °F 45% 30.20 in 10.0 mi SE 4.6 mph - N/A   Clear